Location: York
(31.8935°S, 116.7682°E)
Time: 11:32:40
(UTC+08:00)

Explorer 7 - Visible Passes

Search period start: 13 June 2021 00:00
Search period end: 23 June 2021 00:00
Orbit: 484 x 677 km, 50.3° (Epoch: 12 June)

Date Brightness Start Highest point End Pass type
(mag) Time Alt. Az. Time Alt. Az. Time Alt. Az.
13 Jun 7.1 18:09:29 10° SW 18:13:57 63° SE 18:18:38 10° ENE visible
13 Jun 9.7 19:51:11 10° W 19:54:11 17° NW 19:56:24 13° NNW visible
14 Jun 7.2 18:13:48 10° SW 18:18:17 77° NW 18:23:01 10° NE visible
15 Jun 8.3 18:18:19 10° WSW 18:22:35 44° NW 18:27:04 10° NNE visible
16 Jun 9.5 18:23:08 10° WSW 18:26:50 25° NW 18:30:39 10° N visible
17 Jun 10.2 18:28:36 10° W 18:31:01 14° NW 18:33:29 10° NNW visible
